sat.trackr.live / text

‹ back to catalog

ANIK F3

NORAD 31102 · 2007-009A

PAYLOAD ACTIVE UNKNOWN

§ Identity

Operator
Country
CA
Launch date
2007-04-09
Launch site
TYMSC
Launch vehicle
Mass (kg)
RCS (m²)
28.22

Purposes: comms

External: N2YO · Heavens-Above · Gunter

§ Orbital elements

Epoch: 2026-09-19T15:06:18.159840Z

Period
1,436.10 min
Inclination
1.4348°
Eccentricity
0.0002753
Mean motion
1.00271712 rev/d
Perigee alt
35,775.0 km
Apogee alt
35,798.2 km
Semi-major
42,164.8 km
B*
0.0000e+0
RAAN
82.5650°
Arg perigee
82.7286°
Mean anomaly
301.1351°
Rev number
4,751

§ Raw data

ANIK F31 31102U 07009A   26262.62937685 -.00000005  00000+0  00000+0 0  99912 31102   1.4348  82.5650 0002753  82.7286 301.1351  1.00271712 47517

JSON: /api/v1/satellites/31102 · /tle

For live sub-satellite position, see the globe view (requires WebGL).

§ Visibility from observer

Set your observer location to see the next 7 days of passes ≥ 10°. The values pass through the URL so the page stays shareable.

No JS? Fill the form by hand. The geolocation button needs JavaScript.